Time,TemperatureF,DewpointF,PressureIn,WindDirection,WindDirectionDegrees,WindSpeedMPH,WindSpeedGustMPH,Humidity,HourlyPrecipIn,Conditions,Clouds,dailyrainin,SolarRadiationWatts/m^2,SoftwareType,DateUTC
2013-10-11 00:03:00,56.7,50.3,30.00,West,277,0.0,0.0,79,0.00,RA,,0.00,0.0,WeatherDisplay:10.37,2013-10-11 07:03:00,
2013-10-11 00:08:00,56.6,50.2,30.00,West,277,0.0,0.0,79,0.00,RA,,0.00,0.0,WeatherDisplay:10.37,2013-10-11 07:08:00,
2013-10-11 00:13:00,56.4,50.3,30.00,West,277,0.0,0.0,80,0.00,RA,,0.00,0.0,WeatherDisplay:10.37,2013-10-11 07:13:00,
2013-10-11 00:18:00,56.2,49.8,30.00,West,277,0.0,0.0,79,0.00,CLR,,0.00,0.0,WeatherDisplay:10.37,2013-10-11 07:18:00,
2013-10-11 00:23:00,56.1,50.0,29.99,West,277,0.0,0.0,80,0.00,CLR,,0.00,0.0,WeatherDisplay:10.37,2013-10-11 07:23:00,
2013-10-11 00:28:00,56.0,49.9,30.00,West,277,0.0,0.0,80,0.00,CLR,,0.00,0.0,WeatherDisplay:10.37,2013-10-11 07:28:00,
2013-10-11 00:33:00,55.8,49.7,30.00,West,277,0.0,0.0,80,0.00,CLR,,0.00,0.0,WeatherDisplay:10.37,2013-10-11 07:33:00,
2013-10-11 00:38:00,55.7,49.6,30.00,West,277,0.0,0.0,80,0.00,CLR,,0.00,0.0,WeatherDisplay:10.37,2013-10-11 07:38:00,
2013-10-11 00:43:00,55.5,49.4,29.99,West,277,0.0,0.0,80,0.00,CLR,,0.00,0.0,WeatherDisplay:10.37,2013-10-11 07:43:00,
2013-10-11 00:48:00,55.4,49.7,30.00,West,277,0.0,0.0,81,0.00,CLR,,0.00,0.0,WeatherDisplay:10.37,2013-10-11 07:48:00,
2013-10-11 00:53:00,55.4,50.0,30.00,West,277,0.0,0.0,82,0.00,CLR,,0.00,0.0,WeatherDisplay:10.37,2013-10-11 07:53:00,
2013-10-11 00:58:00,55.3,49.6,30.00,West,277,0.0,0.0,81,0.00,CLR,,0.00,0.0,WeatherDisplay:10.37,2013-10-11 07:58:00,
2013-10-11 01:03:00,55.2,49.5,30.00,West,277,0.0,0.0,81,0.00,CLR,,0.00,0.0,WeatherDisplay:10.37,2013-10-11 08:03:00,
2013-10-11 01:08:00,55.1,49.7,30.00,West,277,0.0,0.0,82,0.00,CLR,,0.00,0.0,WeatherDisplay:10.37,2013-10-11 08:08:00,
2013-10-11 01:13:00,55.0,49.6,30.00,West,277,0.0,0.0,82,0.00,CLR,,0.00,0.0,WeatherDisplay:10.37,2013-10-11 08:13:00,
2013-10-11 01:18:00,54.9,49.5,30.00,West,277,0.0,0.0,82,0.00,CLR,,0.00,0.0,WeatherDisplay:10.37,2013-10-11 08:18:00,
2013-10-11 01:23:00,54.7,49.3,30.00,West,277,0.0,0.0,82,0.00,CLR,,0.00,0.0,WeatherDisplay:10.37,2013-10-11 08:23:00,
2013-10-11 01:28:00,54.6,49.2,30.00,West,277,0.0,0.0,82,0.00,CLR,,0.00,0.0,WeatherDisplay:10.37,2013-10-11 08:28:00,
2013-10-11 01:33:00,54.5,49.1,30.00,West,277,0.0,0.0,82,0.00,CLR,,0.00,0.0,WeatherDisplay:10.37,2013-10-11 08:33:00,
2013-10-11 01:38:00,54.6,49.2,30.00,West,277,2.3,2.3,82,0.00,CLR,,0.00,0.0,WeatherDisplay:10.37,2013-10-11 08:38:00,
2013-10-11 01:43:00,54.6,49.2,30.00,West,277,0.0,0.0,82,0.00,CLR,,0.00,0.0,WeatherDisplay:10.37,2013-10-11 08:43:00,
2013-10-11 01:48:00,54.5,49.1,30.00,West,277,0.0,0.0,82,0.00,CLR,,0.00,0.0,WeatherDisplay:10.37,2013-10-11 08:48:00,
2013-10-11 01:53:00,54.3,48.9,30.00,West,277,0.0,0.0,82,0.00,CLR,,0.00,0.0,WeatherDisplay:10.37,2013-10-11 08:53:00,
2013-10-11 01:58:00,54.2,48.8,30.00,West,277,1.0,0.0,82,0.00,CLR,,0.00,0.0,WeatherDisplay:10.37,2013-10-11 08:58:00,
2013-10-11 02:03:00,54.1,48.7,30.00,West,277,0.0,0.0,82,0.00,CLR,,0.00,0.0,WeatherDisplay:10.37,2013-10-11 09:03:00,
2013-10-11 02:08:00,54.0,48.6,30.00,West,277,0.0,0.0,82,0.00,CLR,,0.00,0.0,WeatherDisplay:10.37,2013-10-11 09:08:00,
2013-10-11 02:13:00,53.8,48.4,30.00,West,277,1.2,1.2,82,0.00,CLR,,0.00,0.0,WeatherDisplay:10.37,2013-10-11 09:13:00,
2013-10-11 02:18:00,53.7,48.3,30.00,West,277,0.0,0.0,82,0.00,CLR,,0.00,0.0,WeatherDisplay:10.37,2013-10-11 09:18:00,
2013-10-11 02:23:00,53.7,48.3,30.00,West,277,0.0,0.0,82,0.00,CLR,,0.00,0.0,WeatherDisplay:10.37,2013-10-11 09:23:00,
2013-10-11 02:28:00,53.5,48.1,29.99,West,277,0.0,0.0,82,0.00,CLR,,0.00,0.0,WeatherDisplay:10.37,2013-10-11 09:28:00,
2013-10-11 02:33:00,53.4,48.0,29.99,West,277,0.0,0.0,82,0.00,CLR,,0.00,0.0,WeatherDisplay:10.37,2013-10-11 09:33:00,
2013-10-11 02:38:00,53.2,48.2,29.99,West,277,0.0,0.0,83,0.00,CLR,,0.00,0.0,WeatherDisplay:10.37,2013-10-11 09:38:00,
2013-10-11 02:43:00,53.2,48.2,29.99,West,277,1.2,0.0,83,0.00,CLR,,0.00,0.0,WeatherDisplay:10.37,2013-10-11 09:43:00,
2013-10-11 02:48:00,53.2,48.2,29.99,West,277,0.0,0.0,83,0.00,CLR,,0.00,0.0,WeatherDisplay:10.37,2013-10-11 09:48:00,
2013-10-11 02:53:00,53.1,48.1,30.00,West,277,0.0,0.0,83,0.00,CLR,,0.00,0.0,WeatherDisplay:10.37,2013-10-11 09:53:00,
2013-10-11 02:59:00,53.2,48.2,29.99,West,277,0.0,0.0,83,0.00,CLR,,0.00,0.0,WeatherDisplay:10.37,2013-10-11 09:59:00,
2013-10-11 03:04:00,53.2,48.2,29.99,West,277,0.0,0.0,83,0.00,CLR,,0.00,0.0,WeatherDisplay:10.37,2013-10-11 10:04:00,
2013-10-11 03:09:00,53.3,48.3,30.00,West,277,0.0,0.0,83,0.00,CLR,,0.00,0.0,WeatherDisplay:10.37,2013-10-11 10:09:00,
2013-10-11 03:14:00,53.5,48.5,30.00,West,277,0.0,0.0,83,0.00,CLR,,0.00,0.0,WeatherDisplay:10.37,2013-10-11 10:14:00,
2013-10-11 03:19:00,53.6,48.6,30.00,West,277,0.0,0.0,83,0.00,CLR,,0.00,0.0,WeatherDisplay:10.37,2013-10-11 10:19:00,
2013-10-11 03:24:00,53.5,48.5,30.00,West,277,0.0,0.0,83,0.00,CLR,,0.00,0.0,WeatherDisplay:10.37,2013-10-11 10:24:00,
2013-10-11 03:29:00,53.3,48.3,30.00,West,277,1.2,0.0,83,0.00,CLR,,0.00,0.0,WeatherDisplay:10.37,2013-10-11 10:29:00,
2013-10-11 03:34:00,53.2,48.2,30.00,West,277,0.0,0.0,83,0.00,CLR,,0.00,0.0,WeatherDisplay:10.37,2013-10-11 10:34:00,
2013-10-11 03:39:00,53.1,48.1,29.99,West,277,0.0,0.0,83,0.00,CLR,,0.00,0.0,WeatherDisplay:10.37,2013-10-11 10:39:00,
2013-10-11 03:44:00,53.0,48.0,29.99,West,277,0.0,0.0,83,0.00,CLR,,0.00,0.0,WeatherDisplay:10.37,2013-10-11 10:44:00,
2013-10-11 03:49:00,52.9,47.9,29.99,West,277,0.0,0.0,83,0.00,CLR,,0.00,0.0,WeatherDisplay:10.37,2013-10-11 10:49:00,
2013-10-11 03:54:00,52.7,48.0,29.99,West,277,0.0,0.0,84,0.00,CLR,,0.00,0.0,WeatherDisplay:10.37,2013-10-11 10:54:00,
2013-10-11 03:59:00,52.7,48.0,29.99,West,277,0.0,0.0,84,0.00,CLR,,0.00,0.0,WeatherDisplay:10.37,2013-10-11 10:59:00,
2013-10-11 04:04:00,52.7,48.0,29.99,West,277,0.0,0.0,84,0.00,CLR,,0.00,0.0,WeatherDisplay:10.37,2013-10-11 11:04:00,
2013-10-11 04:09:00,52.7,48.0,29.99,West,277,0.0,0.0,84,0.00,CLR,,0.00,0.0,WeatherDisplay:10.37,2013-10-11 11:09:00,
2013-10-11 04:14:00,52.6,47.9,30.00,West,277,0.0,0.0,84,0.00,CLR,,0.00,0.0,WeatherDisplay:10.37,2013-10-11 11:14:00,
2013-10-11 04:19:00,52.6,47.9,30.00,West,277,0.0,0.0,84,0.00,CLR,,0.00,0.0,WeatherDisplay:10.37,2013-10-11 11:19:00,
2013-10-11 04:24:00,52.4,47.7,30.00,West,277,0.0,0.0,84,0.00,CLR,,0.00,0.0,WeatherDisplay:10.37,2013-10-11 11:24:00,
2013-10-11 04:29:00,52.3,47.6,30.00,West,277,0.0,0.0,84,0.00,CLR,,0.00,0.0,WeatherDisplay:10.37,2013-10-11 11:29:00,
2013-10-11 04:34:00,52.2,47.8,30.00,West,277,0.0,0.0,85,0.00,CLR,,0.00,0.0,WeatherDisplay:10.37,2013-10-11 11:34:00,
2013-10-11 04:39:00,52.2,47.8,30.00,West,277,0.0,0.0,85,0.00,CLR,,0.00,0.0,WeatherDisplay:10.37,2013-10-11 11:39:00,
2013-10-11 04:44:00,52.1,47.7,30.00,West,277,0.0,0.0,85,0.00,CLR,,0.00,0.0,WeatherDisplay:10.37,2013-10-11 11:44:00,
2013-10-11 04:49:00,52.1,47.7,30.00,West,277,0.0,0.0,85,0.00,CLR,,0.00,0.0,WeatherDisplay:10.37,2013-10-11 11:49:00,
2013-10-11 04:54:00,51.9,47.5,30.00,West,277,0.0,0.0,85,0.00,CLR,,0.00,0.0,WeatherDisplay:10.37,2013-10-11 11:54:00,
2013-10-11 04:59:00,51.8,47.4,30.00,West,277,0.0,0.0,85,0.00,CLR,,0.00,0.0,WeatherDisplay:10.37,2013-10-11 11:59:00,
2013-10-11 05:04:00,51.8,47.4,30.00,West,277,0.0,0.0,85,0.00,CLR,,0.00,0.0,WeatherDisplay:10.37,2013-10-11 12:04:00,
2013-10-11 05:09:00,51.8,47.4,30.00,West,277,0.0,0.0,85,0.00,CLR,,0.00,0.0,WeatherDisplay:10.37,2013-10-11 12:09:00,
2013-10-11 05:14:00,51.6,47.5,30.00,West,277,0.0,0.0,86,0.00,CLR,,0.00,0.0,WeatherDisplay:10.37,2013-10-11 12:14:00,
2013-10-11 05:19:00,51.5,47.1,30.00,West,277,0.0,0.0,85,0.00,CLR,,0.00,0.0,WeatherDisplay:10.37,2013-10-11 12:19:00,
2013-10-11 05:24:00,51.3,47.3,30.00,West,277,0.0,0.0,86,0.00,CLR,,0.00,0.0,WeatherDisplay:10.37,2013-10-11 12:24:00,
2013-10-11 05:29:00,51.4,47.4,30.00,West,277,0.0,0.0,86,0.00,CLR,,0.00,0.0,WeatherDisplay:10.37,2013-10-11 12:29:00,
2013-10-11 05:34:00,51.3,47.3,30.00,West,277,0.0,0.0,86,0.00,CLR,,0.00,0.0,WeatherDisplay:10.37,2013-10-11 12:34:00,
2013-10-11 05:39:00,51.1,47.1,30.01,West,277,0.0,0.0,86,0.00,CLR,,0.00,0.0,WeatherDisplay:10.37,2013-10-11 12:39:00,
2013-10-11 05:44:00,51.0,47.0,30.01,West,277,0.0,0.0,86,0.00,CLR,,0.00,0.0,WeatherDisplay:10.37,2013-10-11 12:44:00,
2013-10-11 05:49:00,50.9,46.9,30.01,West,277,0.0,0.0,86,0.00,CLR,,0.00,0.0,WeatherDisplay:10.37,2013-10-11 12:49:00,
2013-10-11 05:54:00,50.9,47.2,30.01,West,277,0.0,0.0,87,0.00,CLR,,0.00,0.0,WeatherDisplay:10.37,2013-10-11 12:54:00,
2013-10-11 05:59:00,50.9,47.2,30.01,West,277,0.0,0.0,87,0.00,CLR,,0.00,0.0,WeatherDisplay:10.37,2013-10-11 12:59:00,
2013-10-11 06:04:00,51.0,47.3,30.01,West,277,0.0,0.0,87,0.00,CLR,,0.00,0.0,WeatherDisplay:10.37,2013-10-11 13:04:00,
2013-10-11 06:09:00,50.9,47.2,30.01,West,277,0.0,0.0,87,0.00,CLR,,0.00,0.0,WeatherDisplay:10.37,2013-10-11 13:09:00,
2013-10-11 06:14:00,50.7,47.0,30.01,West,277,0.0,0.0,87,0.00,CLR,,0.00,0.0,WeatherDisplay:10.37,2013-10-11 13:14:00,
2013-10-11 06:19:00,50.9,47.5,30.01,West,277,0.0,0.0,88,0.00,CLR,,0.00,0.0,WeatherDisplay:10.37,2013-10-11 13:19:00,
2013-10-11 06:24:00,51.0,47.6,30.01,West,277,0.0,0.0,88,0.00,CLR,,0.00,0.0,WeatherDisplay:10.37,2013-10-11 13:24:00,
2013-10-11 06:29:00,51.1,47.7,30.01,West,277,0.0,0.0,88,0.00,CLR,,0.00,0.0,WeatherDisplay:10.37,2013-10-11 13:29:00,
2013-10-11 06:34:00,51.3,47.9,30.01,West,277,0.0,0.0,88,0.00,CLR,,0.00,0.0,WeatherDisplay:10.37,2013-10-11 13:34:00,
2013-10-11 06:39:00,51.4,48.0,30.01,West,277,0.0,0.0,88,0.00,CLR,,0.00,0.0,WeatherDisplay:10.37,2013-10-11 13:39:00,
2013-10-11 06:44:00,51.5,48.1,30.01,West,277,0.0,0.0,88,0.00,CLR,,0.00,0.0,WeatherDisplay:10.37,2013-10-11 13:44:00,
2013-10-11 06:49:00,51.5,48.1,30.01,West,277,0.0,0.0,88,0.00,CLR,,0.00,0.0,WeatherDisplay:10.37,2013-10-11 13:49:00,
2013-10-11 06:54:00,51.5,47.8,30.01,West,277,0.0,0.0,87,0.00,CLR,,0.00,0.0,WeatherDisplay:10.37,2013-10-11 13:54:00,
2013-10-11 06:59:00,51.4,47.7,30.02,West,277,0.0,0.0,87,0.00,BKN,,0.00,5.0,WeatherDisplay:10.37,2013-10-11 13:59:00,
2013-10-11 07:04:00,51.3,47.6,30.02,West,277,0.0,0.0,87,0.00,BKN,,0.00,9.0,WeatherDisplay:10.37,2013-10-11 14:04:00,
2013-10-11 07:09:00,51.2,47.5,30.02,West,277,0.0,0.0,87,0.00,BKN,,0.00,12.0,WeatherDisplay:10.37,2013-10-11 14:09:00,
2013-10-11 07:14:00,51.1,47.4,30.02,West,277,0.0,0.0,87,0.00,BKN,,0.00,18.0,WeatherDisplay:10.37,2013-10-11 14:14:00,
2013-10-11 07:19:00,51.0,47.3,30.02,West,277,0.0,0.0,87,0.00,BKN,,0.00,21.0,WeatherDisplay:10.37,2013-10-11 14:19:00,
2013-10-11 07:24:00,51.1,47.7,30.02,West,277,1.2,1.2,88,0.00,BKN,,0.00,30.0,WeatherDisplay:10.37,2013-10-11 14:24:00,
2013-10-11 07:29:00,51.2,47.8,30.02,West,277,1.2,0.0,88,0.00,BKN,,0.00,39.0,WeatherDisplay:10.37,2013-10-11 14:29:00,
2013-10-11 07:34:00,51.4,48.0,30.02,West,277,1.2,0.0,88,0.00,BKN,,0.00,49.0,WeatherDisplay:10.37,2013-10-11 14:34:00,
2013-10-11 07:39:00,51.8,48.4,30.02,West,277,0.0,0.0,88,0.00,SCT,,0.00,62.0,WeatherDisplay:10.37,2013-10-11 14:39:00,
2013-10-11 07:44:00,52.3,48.9,30.02,West,277,0.0,0.0,88,0.00,SCT,,0.00,76.0,WeatherDisplay:10.37,2013-10-11 14:44:00,
2013-10-11 07:49:00,53.0,49.5,30.02,West,277,1.2,1.2,88,0.00,SCT,,0.00,90.0,WeatherDisplay:10.37,2013-10-11 14:49:00,
2013-10-11 07:54:00,53.6,49.8,30.02,West,277,1.2,0.0,87,0.00,SCT,,0.00,107.0,WeatherDisplay:10.37,2013-10-11 14:54:00,
2013-10-11 07:59:00,54.3,50.2,30.03,West,277,1.2,0.0,86,0.00,SCT,,0.00,125.0,WeatherDisplay:10.37,2013-10-11 14:59:00,
2013-10-11 08:04:00,55.0,50.6,30.03,West,277,2.3,2.3,85,0.00,FEW,,0.00,146.0,WeatherDisplay:10.37,2013-10-11 15:04:00,
2013-10-11 08:09:00,55.5,50.7,30.03,West,277,2.0,2.0,84,0.00,FEW,,0.00,162.0,WeatherDisplay:10.37,2013-10-11 15:09:00,
2013-10-11 08:14:00,56.0,50.6,30.03,West,277,2.3,2.3,82,0.00,FEW,,0.00,181.0,WeatherDisplay:10.37,2013-10-11 15:14:00,
2013-10-11 08:19:00,56.4,50.6,30.03,West,277,2.3,2.3,81,0.00,CLR,,0.00,200.0,WeatherDisplay:10.37,2013-10-11 15:19:00,
2013-10-11 08:24:00,56.9,51.1,30.03,West,277,1.2,1.2,81,0.00,CLR,,0.00,218.0,WeatherDisplay:10.37,2013-10-11 15:24:00,
2013-10-11 08:29:00,57.3,51.2,30.03,West,277,2.3,2.3,80,0.00,CLR,,0.00,236.0,WeatherDisplay:10.37,2013-10-11 15:29:00,
2013-10-11 08:34:00,57.7,51.2,30.04,West,277,2.3,2.3,79,0.00,CLR,,0.00,251.0,WeatherDisplay:10.37,2013-10-11 15:34:00,
2013-10-11 08:39:00,58.2,51.4,30.04,West,277,1.2,0.0,78,0.00,CLR,,0.00,265.0,WeatherDisplay:10.37,2013-10-11 15:39:00,
2013-10-11 08:44:00,58.9,51.7,30.04,West,277,1.2,0.0,77,0.00,CLR,,0.00,281.0,WeatherDisplay:10.37,2013-10-11 15:44:00,
2013-10-11 08:49:00,59.5,51.9,30.04,West,277,0.0,0.0,76,0.00,CLR,,0.00,299.0,WeatherDisplay:10.37,2013-10-11 15:49:00,
2013-10-11 08:54:00,60.4,51.7,30.04,West,277,0.0,0.0,73,0.00,CLR,,0.00,315.0,WeatherDisplay:10.37,2013-10-11 15:54:00,
2013-10-11 08:59:00,61.1,52.0,30.04,West,277,0.0,0.0,72,0.00,CLR,,0.00,330.0,WeatherDisplay:10.37,2013-10-11 15:59:00,
2013-10-11 09:04:00,61.4,51.9,30.04,West,277,0.0,0.0,71,0.00,CLR,,0.00,345.0,WeatherDisplay:10.37,2013-10-11 16:04:00,
2013-10-11 09:09:00,62.0,52.1,30.04,West,277,1.2,1.2,70,0.00,CLR,,0.00,359.0,WeatherDisplay:10.37,2013-10-11 16:09:00,
2013-10-11 09:14:00,62.1,51.4,30.04,West,277,2.3,0.0,68,0.00,CLR,,0.00,373.0,WeatherDisplay:10.37,2013-10-11 16:14:00,
2013-10-11 09:19:00,62.0,51.7,30.04,West,277,2.3,2.3,69,0.00,CLR,,0.00,388.0,WeatherDisplay:10.37,2013-10-11 16:19:00,
2013-10-11 09:24:00,61.9,51.6,30.04,West,277,1.2,0.0,69,0.00,CLR,,0.00,404.0,WeatherDisplay:10.37,2013-10-11 16:24:00,
2013-10-11 09:29:00,62.4,52.1,30.04,West,277,0.0,0.0,69,0.00,CLR,,0.00,417.0,WeatherDisplay:10.37,2013-10-11 16:29:00,
2013-10-11 09:34:00,63.1,51.6,30.04,West,277,2.3,2.3,66,0.00,CLR,,0.00,427.0,WeatherDisplay:10.37,2013-10-11 16:34:00,
2013-10-11 09:39:00,63.3,52.2,30.04,West,277,2.3,2.3,67,0.00,CLR,,0.00,445.0,WeatherDisplay:10.37,2013-10-11 16:39:00,
2013-10-11 09:44:00,63.7,52.1,30.04,West,277,2.3,2.3,66,0.00,CLR,,0.00,455.0,WeatherDisplay:10.37,2013-10-11 16:44:00,
2013-10-11 09:49:00,64.1,52.1,30.04,West,276,3.5,3.5,65,0.00,CLR,,0.00,468.0,WeatherDisplay:10.37,2013-10-11 16:49:00,
2013-10-11 09:54:00,64.2,51.8,30.04,West,274,3.5,3.5,64,0.00,CLR,,0.00,480.0,WeatherDisplay:10.37,2013-10-11 16:54:00,
2013-10-11 09:59:00,64.4,51.5,30.04,West,273,3.5,3.5,63,0.00,CLR,,0.00,497.0,WeatherDisplay:10.37,2013-10-11 16:59:00,
2013-10-11 10:04:00,64.2,51.3,30.04,West,273,3.5,3.5,63,0.00,CLR,,0.00,506.0,WeatherDisplay:10.37,2013-10-11 17:04:00,
2013-10-11 10:09:00,64.2,51.8,30.03,West,273,3.0,3.0,64,0.00,CLR,,0.00,512.0,WeatherDisplay:10.37,2013-10-11 17:09:00,
2013-10-11 10:14:00,64.4,51.5,30.04,West,275,3.5,3.5,63,0.00,CLR,,0.00,527.0,WeatherDisplay:10.37,2013-10-11 17:14:00,
2013-10-11 10:19:00,64.4,51.1,30.04,West,275,3.5,3.5,62,0.00,CLR,,0.00,536.0,WeatherDisplay:10.37,2013-10-11 17:19:00,
2013-10-11 10:24:00,64.6,51.3,30.04,West,275,3.5,3.5,62,0.00,CLR,,0.00,550.0,WeatherDisplay:10.37,2013-10-11 17:24:00,
2013-10-11 10:29:00,64.9,51.6,30.03,West,275,3.5,3.5,62,0.00,CLR,,0.00,557.0,WeatherDisplay:10.37,2013-10-11 17:29:00,
2013-10-11 10:34:00,65.3,51.5,30.03,West,275,3.5,3.5,61,0.00,CLR,,0.00,568.0,WeatherDisplay:10.37,2013-10-11 17:34:00,
2013-10-11 10:39:00,65.8,51.5,30.03,West,275,2.3,2.3,60,0.00,CLR,,0.00,575.0,WeatherDisplay:10.37,2013-10-11 17:39:00,
2013-10-11 10:44:00,65.9,51.2,30.03,West,277,4.6,4.6,59,0.00,CLR,,0.00,582.0,WeatherDisplay:10.37,2013-10-11 17:44:00,
2013-10-11 10:49:00,65.9,51.2,30.03,West,277,3.5,3.5,59,0.00,CLR,,0.00,598.0,WeatherDisplay:10.37,2013-10-11 17:49:00,
2013-10-11 10:54:00,66.3,51.5,30.03,West,277,2.3,2.3,59,0.00,CLR,,0.00,612.0,WeatherDisplay:10.37,2013-10-11 17:54:00,
2013-10-11 10:59:00,66.9,52.1,30.03,West,277,3.5,3.5,59,0.00,CLR,,0.00,612.0,WeatherDisplay:10.37,2013-10-11 17:59:00,
2013-10-11 11:04:00,67.2,51.4,30.03,West,278,5.0,5.0,57,0.00,CLR,,0.00,624.0,WeatherDisplay:10.37,2013-10-11 18:04:00,
2013-10-11 11:09:00,67.4,51.6,30.03,West,279,4.6,4.6,57,0.00,CLR,,0.00,631.0,WeatherDisplay:10.37,2013-10-11 18:09:00,
2013-10-11 11:14:00,67.6,51.3,30.03,WSW,252,3.5,3.5,56,0.00,CLR,,0.00,642.0,WeatherDisplay:10.37,2013-10-11 18:14:00,
2013-10-11 11:19:00,67.9,51.1,30.03,WSW,252,2.3,2.3,55,0.00,CLR,,0.00,647.0,WeatherDisplay:10.37,2013-10-11 18:19:00,
2013-10-11 11:24:00,68.6,51.8,30.03,WSW,245,4.6,4.6,55,0.00,CLR,,0.00,654.0,WeatherDisplay:10.37,2013-10-11 18:24:00,
2013-10-11 11:29:00,68.8,52.0,30.02,SW,231,5.0,5.0,55,0.00,CLR,,0.00,664.0,WeatherDisplay:10.37,2013-10-11 18:29:00,
2013-10-11 11:34:00,68.7,51.4,30.02,SW,218,5.8,5.8,54,0.00,CLR,,0.00,668.0,WeatherDisplay:10.37,2013-10-11 18:34:00,
2013-10-11 11:39:00,68.7,51.4,30.02,SW,219,4.0,4.0,54,0.00,CLR,,0.00,675.0,WeatherDisplay:10.37,2013-10-11 18:39:00,
2013-10-11 11:44:00,68.9,50.0,30.02,West,273,6.9,6.9,51,0.00,CLR,,0.00,680.0,WeatherDisplay:10.37,2013-10-11 18:44:00,
2013-10-11 11:49:00,69.4,50.5,30.02,WNW,294,3.5,3.5,51,0.00,CLR,,0.00,682.0,WeatherDisplay:10.37,2013-10-11 18:49:00,
2013-10-11 11:54:00,69.3,50.4,30.02,WNW,294,4.0,4.0,51,0.00,CLR,,0.00,686.0,WeatherDisplay:10.37,2013-10-11 18:54:00,
2013-10-11 11:59:00,69.7,50.8,30.01,WNW,294,4.0,4.0,51,0.00,CLR,,0.00,686.0,WeatherDisplay:10.37,2013-10-11 18:59:00,
2013-10-11 12:04:00,69.9,50.4,30.01,West,274,4.6,4.6,50,0.00,CLR,,0.00,698.0,WeatherDisplay:10.37,2013-10-11 19:04:00,
2013-10-11 12:09:00,69.9,49.9,30.01,West,276,5.8,5.8,49,0.00,CLR,,0.00,696.0,WeatherDisplay:10.37,2013-10-11 19:09:00,
2013-10-11 12:14:00,70.0,50.0,30.01,West,276,2.3,2.3,49,0.00,CLR,,0.00,700.0,WeatherDisplay:10.37,2013-10-11 19:14:00,
2013-10-11 12:19:00,70.5,50.4,30.00,WSW,250,5.0,5.0,49,0.00,CLR,,0.00,703.0,WeatherDisplay:10.37,2013-10-11 19:19:00,
2013-10-11 12:24:00,70.9,50.8,30.00,SW,228,2.3,0.0,49,0.00,CLR,,0.00,701.0,WeatherDisplay:10.37,2013-10-11 19:24:00,
2013-10-11 12:29:00,71.3,50.6,30.00,WSW,258,6.9,6.9,48,0.00,CLR,,0.00,694.0,WeatherDisplay:10.37,2013-10-11 19:29:00,
2013-10-11 12:34:00,71.6,50.3,30.00,West,277,6.9,6.9,47,0.00,CLR,,0.00,701.0,WeatherDisplay:10.37,2013-10-11 19:34:00,
2013-10-11 12:39:00,71.2,49.9,30.00,West,277,3.5,3.5,47,0.00,CLR,,0.00,703.0,WeatherDisplay:10.37,2013-10-11 19:39:00,
2013-10-11 12:44:00,71.5,50.2,29.99,West,279,2.3,2.3,47,0.00,CLR,,0.00,705.0,WeatherDisplay:10.37,2013-10-11 19:44:00,
2013-10-11 12:49:00,72.1,50.2,29.99,WNW,288,5.8,5.8,46,0.00,CLR,,0.00,701.0,WeatherDisplay:10.37,2013-10-11 19:49:00,
2013-10-11 12:54:00,72.7,50.1,29.98,WSW,243,3.5,3.5,45,0.00,CLR,,0.00,701.0,WeatherDisplay:10.37,2013-10-11 19:54:00,
2013-10-11 12:59:00,73.1,49.9,29.98,West,269,7.0,7.0,44,0.00,CLR,,0.00,701.0,WeatherDisplay:10.37,2013-10-11 19:59:00,
2013-10-11 13:04:00,72.8,50.2,29.98,WNW,283,3.5,3.5,45,0.00,CLR,,0.00,701.0,WeatherDisplay:10.37,2013-10-11 20:04:00,
2013-10-11 13:09:00,72.9,49.7,29.98,WNW,288,3.5,3.5,44,0.00,CLR,,0.00,698.0,WeatherDisplay:10.37,2013-10-11 20:09:00,
2013-10-11 13:14:00,73.2,50.0,29.97,WNW,290,3.0,3.0,44,0.00,CLR,,0.00,693.0,WeatherDisplay:10.37,2013-10-11 20:14:00,
2013-10-11 13:19:00,73.8,49.9,29.97,West,276,6.9,6.9,43,0.00,CLR,,0.00,687.0,WeatherDisplay:10.37,2013-10-11 20:19:00,
2013-10-11 13:24:00,73.6,49.7,29.97,West,277,7.0,7.0,43,0.00,CLR,,0.00,682.0,WeatherDisplay:10.37,2013-10-11 20:24:00,
2013-10-11 13:29:00,73.9,50.0,29.97,WNW,288,5.8,5.8,43,0.00,CLR,,0.00,677.0,WeatherDisplay:10.37,2013-10-11 20:29:00,
2013-10-11 13:34:00,74.5,49.9,29.97,WSW,253,6.0,6.0,42,0.00,CLR,,0.00,682.0,WeatherDisplay:10.37,2013-10-11 20:34:00,
2013-10-11 13:39:00,74.4,49.2,29.97,SSW,211,5.8,5.8,41,0.00,CLR,,0.00,670.0,WeatherDisplay:10.37,2013-10-11 20:39:00,
2013-10-11 13:44:00,74.3,49.1,29.96,South,173,4.6,4.6,41,0.00,FEW,,0.00,496.0,WeatherDisplay:10.37,2013-10-11 20:44:00,
2013-10-11 13:49:00,74.8,49.5,29.96,SSW,192,3.5,3.5,41,0.00,FEW,,0.00,654.0,WeatherDisplay:10.37,2013-10-11 20:49:00,
2013-10-11 13:54:00,75.1,49.1,29.96,WSW,252,8.1,8.1,40,0.00,CLR,,0.00,649.0,WeatherDisplay:10.37,2013-10-11 20:54:00,
2013-10-11 13:59:00,74.9,49.6,29.96,West,259,5.0,5.0,41,0.00,CLR,,0.00,640.0,WeatherDisplay:10.37,2013-10-11 20:59:00,
2013-10-11 14:04:00,75.3,49.3,29.95,West,262,7.0,7.0,40,0.00,CLR,,0.00,645.0,WeatherDisplay:10.37,2013-10-11 21:04:00,
2013-10-11 14:09:00,75.4,48.7,29.95,WNW,289,9.0,9.0,39,0.00,CLR,,0.00,633.0,WeatherDisplay:10.37,2013-10-11 21:09:00,
2013-10-11 14:14:00,75.0,48.4,29.95,West,264,9.2,9.2,39,0.00,CLR,,0.00,624.0,WeatherDisplay:10.37,2013-10-11 21:14:00,
2013-10-11 14:19:00,75.0,49.0,29.95,WSW,255,4.6,4.6,40,0.00,CLR,,0.00,619.0,WeatherDisplay:10.37,2013-10-11 21:19:00,
2013-10-11 14:24:00,75.4,49.4,29.95,WSW,257,5.8,5.8,40,0.00,CLR,,0.00,603.0,WeatherDisplay:10.37,2013-10-11 21:24:00,
2013-10-11 14:29:00,75.4,52.6,29.95,SW,222,7.0,7.0,45,0.00,CLR,,0.00,605.0,WeatherDisplay:10.37,2013-10-11 21:29:00,
2013-10-11 14:34:00,74.8,53.8,29.95,SSW,213,10.4,10.4,48,0.00,CLR,,0.00,591.0,WeatherDisplay:10.37,2013-10-11 21:34:00,
2013-10-11 14:39:00,74.5,54.1,29.95,West,263,8.1,8.1,49,0.00,CLR,,0.00,582.0,WeatherDisplay:10.37,2013-10-11 21:39:00,
2013-10-11 14:44:00,74.7,53.7,29.95,WNW,286,6.9,6.9,48,0.00,CLR,,0.00,566.0,WeatherDisplay:10.37,2013-10-11 21:44:00,
2013-10-11 14:49:00,74.6,53.6,29.95,West,264,4.6,4.6,48,0.00,CLR,,0.00,555.0,WeatherDisplay:10.37,2013-10-11 21:49:00,
2013-10-11 14:54:00,74.5,54.1,29.94,West,277,8.1,8.1,49,0.00,CLR,,0.00,554.0,WeatherDisplay:10.37,2013-10-11 21:54:00,
2013-10-11 14:59:00,74.1,54.3,29.94,SSW,205,10.0,10.0,50,0.00,CLR,,0.00,533.0,WeatherDisplay:10.37,2013-10-11 21:59:00,
2013-10-11 15:04:00,74.1,54.3,29.94,West,259,9.2,9.2,50,0.00,CLR,,0.00,533.0,WeatherDisplay:10.37,2013-10-11 22:04:00,
2013-10-11 15:09:00,74.0,54.2,29.94,WSW,241,6.0,6.0,50,0.00,CLR,,0.00,520.0,WeatherDisplay:10.37,2013-10-11 22:09:00,
2013-10-11 15:14:00,73.9,54.1,29.95,West,261,6.9,6.9,50,0.00,CLR,,0.00,510.0,WeatherDisplay:10.37,2013-10-11 22:14:00,
2013-10-11 15:19:00,73.9,54.1,29.94,West,275,9.2,9.2,50,0.00,CLR,,0.00,494.0,WeatherDisplay:10.37,2013-10-11 22:19:00,
2013-10-11 15:24:00,73.7,54.4,29.94,WSW,257,10.4,10.4,51,0.00,CLR,,0.00,487.0,WeatherDisplay:10.37,2013-10-11 22:24:00,
2013-10-11 15:29:00,74.1,53.7,29.94,SW,223,5.8,5.8,49,0.00,CLR,,0.00,468.0,WeatherDisplay:10.37,2013-10-11 22:29:00,
2013-10-11 15:34:00,73.5,53.7,29.94,West,273,11.5,11.5,50,0.00,CLR,,0.00,459.0,WeatherDisplay:10.37,2013-10-11 22:34:00,
2013-10-11 15:39:00,73.2,53.4,29.94,West,263,10.0,10.0,50,0.00,CLR,,0.00,450.0,WeatherDisplay:10.37,2013-10-11 22:39:00,
2013-10-11 15:44:00,73.1,53.9,29.94,West,269,9.2,9.2,51,0.00,CLR,,0.00,436.0,WeatherDisplay:10.37,2013-10-11 22:44:00,
2013-10-11 15:49:00,73.3,53.5,29.94,West,269,11.5,11.5,50,0.00,CLR,,0.00,422.0,WeatherDisplay:10.37,2013-10-11 22:49:00,
2013-10-11 15:54:00,73.3,54.1,29.94,WSW,257,9.2,9.2,51,0.00,CLR,,0.00,406.0,WeatherDisplay:10.37,2013-10-11 22:54:00,
2013-10-11 15:59:00,73.4,53.6,29.94,WNW,285,8.0,8.0,50,0.00,CLR,,0.00,394.0,WeatherDisplay:10.37,2013-10-11 22:59:00,
2013-10-11 16:04:00,72.9,53.7,29.93,West,273,10.4,10.4,51,0.00,CLR,,0.00,380.0,WeatherDisplay:10.37,2013-10-11 23:04:00,
2013-10-11 16:09:00,72.7,53.5,29.93,West,281,10.0,10.0,51,0.00,CLR,,0.00,364.0,WeatherDisplay:10.37,2013-10-11 23:09:00,
2013-10-11 16:14:00,72.5,53.3,29.93,West,270,10.0,10.0,51,0.00,CLR,,0.00,350.0,WeatherDisplay:10.37,2013-10-11 23:14:00,
2013-10-11 16:19:00,72.4,53.8,29.93,West,266,9.2,9.2,52,0.00,CLR,,0.00,338.0,WeatherDisplay:10.37,2013-10-11 23:19:00,
2013-10-11 16:24:00,72.8,54.1,29.93,West,262,9.2,9.2,52,0.00,CLR,,0.00,323.0,WeatherDisplay:10.37,2013-10-11 23:24:00,
2013-10-11 16:29:00,72.4,53.8,29.93,West,270,11.5,11.5,52,0.00,CLR,,0.00,308.0,WeatherDisplay:10.37,2013-10-11 23:29:00,
2013-10-11 16:34:00,71.6,53.6,29.93,West,263,13.8,13.8,53,0.00,CLR,,0.00,294.0,WeatherDisplay:10.37,2013-10-11 23:34:00,
2013-10-11 16:39:00,71.2,53.7,29.93,West,280,12.0,12.0,54,0.00,CLR,,0.00,274.0,WeatherDisplay:10.37,2013-10-11 23:39:00,
2013-10-11 16:44:00,71.1,54.6,29.93,West,279,9.2,9.2,56,0.00,CLR,,0.00,211.0,WeatherDisplay:10.37,2013-10-11 23:44:00,
2013-10-11 16:49:00,70.8,54.3,29.93,West,260,12.7,12.7,56,0.00,CLR,,0.00,246.0,WeatherDisplay:10.37,2013-10-11 23:49:00,
2013-10-11 16:54:00,70.6,54.1,29.93,NW,311,11.5,11.5,56,0.00,CLR,,0.00,229.0,WeatherDisplay:10.37,2013-10-11 23:54:00,
2013-10-11 16:59:00,70.7,54.2,29.93,West,261,8.1,8.1,56,0.00,CLR,,0.00,216.0,WeatherDisplay:10.37,2013-10-11 23:59:00,
2013-10-11 17:04:00,70.1,54.2,29.93,WSW,241,11.5,11.5,57,0.00,CLR,,0.00,199.0,WeatherDisplay:10.37,2013-10-12 00:04:00,
2013-10-11 17:09:00,69.9,54.4,29.93,WSW,238,11.5,11.5,58,0.00,CLR,,0.00,179.0,WeatherDisplay:10.37,2013-10-12 00:09:00,
2013-10-11 17:14:00,69.8,54.4,29.93,WSW,257,10.4,10.4,58,0.00,CLR,,0.00,160.0,WeatherDisplay:10.37,2013-10-12 00:14:00,
2013-10-11 17:19:00,69.6,54.2,29.93,West,262,10.4,10.4,58,0.00,CLR,,0.00,141.0,WeatherDisplay:10.37,2013-10-12 00:19:00,
2013-10-11 17:24:00,69.8,54.8,29.93,WSW,252,9.0,9.0,59,0.00,FEW,,0.00,121.0,WeatherDisplay:10.37,2013-10-12 00:24:00,
2013-10-11 17:29:00,69.2,54.3,29.93,West,277,11.5,11.5,59,0.00,FEW,,0.00,105.0,WeatherDisplay:10.37,2013-10-12 00:29:00,
2013-10-11 17:34:00,68.7,54.3,29.93,West,269,11.5,11.5,60,0.00,SCT,,0.00,90.0,WeatherDisplay:10.37,2013-10-12 00:34:00,
2013-10-11 17:39:00,68.4,54.4,29.93,WNW,290,9.2,9.2,61,0.00,SCT,,0.00,72.0,WeatherDisplay:10.37,2013-10-12 00:39:00,
2013-10-11 17:44:00,68.2,54.2,29.93,WNW,286,10.4,10.4,61,0.00,SCT,,0.00,60.0,WeatherDisplay:10.37,2013-10-12 00:44:00,
2013-10-11 17:49:00,67.5,54.5,29.93,WNW,288,11.5,11.5,63,0.00,SCT,,0.00,47.0,WeatherDisplay:10.37,2013-10-12 00:49:00,
2013-10-11 17:54:00,67.3,54.7,29.93,West,274,9.0,9.0,64,0.00,SCT,,0.00,35.0,WeatherDisplay:10.37,2013-10-12 00:54:00,
2013-10-11 17:59:00,67.2,55.0,29.93,WNW,290,8.1,8.1,65,0.00,BKN,,0.00,26.0,WeatherDisplay:10.37,2013-10-12 00:59:00,
2013-10-11 18:04:00,67.1,54.9,29.93,WNW,294,9.2,9.2,65,0.00,BKN,,0.00,19.0,WeatherDisplay:10.37,2013-10-12 01:04:00,
2013-10-11 18:09:00,66.8,54.7,29.93,WNW,284,6.9,6.9,65,0.00,BKN,,0.00,14.0,WeatherDisplay:10.37,2013-10-12 01:09:00,
2013-10-11 18:14:00,66.8,54.7,29.93,West,262,7.0,7.0,65,0.00,BKN,,0.00,11.0,WeatherDisplay:10.37,2013-10-12 01:14:00,
2013-10-11 18:19:00,66.3,54.6,29.93,West,275,8.1,8.1,66,0.00,SCT,,0.00,7.0,WeatherDisplay:10.37,2013-10-12 01:19:00,
2013-10-11 18:24:00,66.0,55.1,29.93,West,276,10.4,10.4,68,0.00,CLR,,0.00,0.0,WeatherDisplay:10.37,2013-10-12 01:24:00,
2013-10-11 18:29:00,65.7,55.2,29.93,West,261,5.8,5.8,69,0.00,CLR,,0.00,0.0,WeatherDisplay:10.37,2013-10-12 01:29:00,
2013-10-11 18:34:00,65.5,55.1,29.93,West,271,7.0,7.0,69,0.00,CLR,,0.00,0.0,WeatherDisplay:10.37,2013-10-12 01:34:00,
2013-10-11 18:39:00,65.4,55.0,29.93,WNW,290,10.0,10.0,69,0.00,CLR,,0.00,0.0,WeatherDisplay:10.37,2013-10-12 01:39:00,
2013-10-11 18:44:00,65.1,54.7,29.93,WNW,291,9.0,9.0,69,0.00,CLR,,0.00,0.0,WeatherDisplay:10.37,2013-10-12 01:44:00,
2013-10-11 18:49:00,64.9,54.9,29.93,West,277,10.4,10.4,70,0.00,CLR,,0.00,0.0,WeatherDisplay:10.37,2013-10-12 01:49:00,
2013-10-11 18:54:00,64.7,55.1,29.93,WNW,284,8.0,8.0,71,0.00,CLR,,0.00,0.0,WeatherDisplay:10.37,2013-10-12 01:54:00,
2013-10-11 18:59:00,64.5,55.7,29.94,WNW,290,9.2,9.2,73,0.00,CLR,,0.00,0.0,WeatherDisplay:10.37,2013-10-12 01:59:00,
2013-10-11 19:04:00,64.4,55.9,29.94,WNW,284,10.4,10.4,74,0.00,CLR,,0.00,0.0,WeatherDisplay:10.37,2013-10-12 02:04:00,
2013-10-11 19:09:00,64.2,55.7,29.94,WNW,287,8.1,8.1,74,0.00,CLR,,0.00,0.0,WeatherDisplay:10.37,2013-10-12 02:09:00,
2013-10-11 19:14:00,64.0,55.5,29.94,WNW,291,7.0,7.0,74,0.00,CLR,,0.00,0.0,WeatherDisplay:10.37,2013-10-12 02:14:00,
2013-10-11 19:19:00,63.9,55.4,29.94,WNW,294,8.1,8.1,74,0.00,CLR,,0.00,0.0,WeatherDisplay:10.37,2013-10-12 02:19:00,
2013-10-11 19:24:00,63.7,56.0,29.94,WNW,286,6.0,6.0,76,0.00,CLR,,0.00,0.0,WeatherDisplay:10.37,2013-10-12 02:24:00,
2013-10-11 19:29:00,63.7,56.0,29.94,West,279,6.0,6.0,76,0.00,CLR,,0.00,0.0,WeatherDisplay:10.37,2013-10-12 02:29:00,
2013-10-11 19:34:00,63.6,55.9,29.94,WNW,284,4.6,4.6,76,0.00,CLR,,0.00,0.0,WeatherDisplay:10.37,2013-10-12 02:34:00,
2013-10-11 19:39:00,63.5,55.8,29.94,West,281,6.0,6.0,76,0.00,CLR,,0.00,0.0,WeatherDisplay:10.37,2013-10-12 02:39:00,
2013-10-11 19:44:00,63.4,56.1,29.94,West,281,5.0,5.0,77,0.00,CLR,,0.00,0.0,WeatherDisplay:10.37,2013-10-12 02:44:00,
2013-10-11 19:49:00,63.3,56.0,29.94,West,281,4.0,4.0,77,0.00,CLR,,0.00,0.0,WeatherDisplay:10.37,2013-10-12 02:49:00,
2013-10-11 19:54:00,63.3,56.3,29.94,West,281,3.5,3.5,78,0.00,CLR,,0.00,0.0,WeatherDisplay:10.37,2013-10-12 02:54:00,
2013-10-11 19:59:00,63.2,56.2,29.94,West,281,2.3,2.3,78,0.00,CLR,,0.00,0.0,WeatherDisplay:10.37,2013-10-12 02:59:00,
2013-10-11 20:04:00,63.2,56.2,29.94,West,281,1.2,1.2,78,0.00,CLR,,0.00,0.0,WeatherDisplay:10.37,2013-10-12 03:04:00,
2013-10-11 20:09:00,63.1,56.1,29.94,West,281,1.2,1.2,78,0.00,CLR,,0.00,0.0,WeatherDisplay:10.37,2013-10-12 03:09:00,
2013-10-11 20:14:00,63.0,56.0,29.94,West,281,2.3,2.3,78,0.00,CLR,,0.00,0.0,WeatherDisplay:10.37,2013-10-12 03:14:00,
2013-10-11 20:19:00,62.9,55.9,29.94,West,281,1.2,1.2,78,0.00,CLR,,0.00,0.0,WeatherDisplay:10.37,2013-10-12 03:19:00,
2013-10-11 20:24:00,62.7,55.7,29.94,West,281,2.3,2.3,78,0.00,CLR,,0.00,0.0,WeatherDisplay:10.37,2013-10-12 03:24:00,
2013-10-11 20:29:00,62.6,55.6,29.94,West,281,2.3,2.3,78,0.00,CLR,,0.00,0.0,WeatherDisplay:10.37,2013-10-12 03:29:00,
2013-10-11 20:34:00,62.5,55.5,29.94,West,281,3.5,3.5,78,0.00,CLR,,0.00,0.0,WeatherDisplay:10.37,2013-10-12 03:34:00,
2013-10-11 20:39:00,62.4,55.8,29.94,West,281,2.3,2.3,79,0.00,CLR,,0.00,0.0,WeatherDisplay:10.37,2013-10-12 03:39:00,
2013-10-11 20:44:00,62.4,55.8,29.94,West,281,5.0,5.0,79,0.00,CLR,,0.00,0.0,WeatherDisplay:10.37,2013-10-12 03:44:00,
2013-10-11 20:49:00,62.4,55.8,29.94,West,281,1.2,1.2,79,0.00,CLR,,0.00,0.0,WeatherDisplay:10.37,2013-10-12 03:49:00,
2013-10-11 20:54:00,62.3,55.7,29.94,West,281,3.5,3.5,79,0.00,CLR,,0.00,0.0,WeatherDisplay:10.37,2013-10-12 03:54:00,
2013-10-11 20:59:00,62.3,55.7,29.94,West,281,2.3,2.3,79,0.00,CLR,,0.00,0.0,WeatherDisplay:10.37,2013-10-12 03:59:00,
2013-10-11 21:01:00,62.3,55.7,29.94,West,281,2.3,2.3,79,0.00,CLR,,0.00,0.0,WeatherDisplay:10.37,2013-10-12 04:01:00,
2013-10-11 21:02:00,62.2,55.6,29.95,West,281,1.2,1.2,79,0.00,CLR,,0.00,0.0,WeatherDisplay:10.37,2013-10-12 04:02:00,
2013-10-11 21:03:00,62.2,55.6,29.95,West,281,3.5,3.5,79,0.00,CLR,,0.00,0.0,WeatherDisplay:10.37,2013-10-12 04:03:00,
2013-10-11 21:08:00,62.2,56.0,29.95,West,281,2.3,2.3,80,0.00,CLR,,0.00,0.0,WeatherDisplay:10.37,2013-10-12 04:08:00,
2013-10-11 21:13:00,62.2,56.0,29.95,West,281,1.2,1.2,80,0.00,CLR,,0.00,0.0,WeatherDisplay:10.37,2013-10-12 04:13:00,
2013-10-11 21:18:00,62.1,55.9,29.95,West,281,2.3,2.3,80,0.00,CLR,,0.00,0.0,WeatherDisplay:10.37,2013-10-12 04:18:00,
2013-10-11 21:23:00,62.1,55.9,29.95,West,281,2.3,2.3,80,0.00,CLR,,0.00,0.0,WeatherDisplay:10.37,2013-10-12 04:23:00,
2013-10-11 21:28:00,62.0,55.8,29.95,West,281,0.0,0.0,80,0.00,CLR,,0.00,0.0,WeatherDisplay:10.37,2013-10-12 04:28:00,
2013-10-11 21:33:00,61.8,55.6,29.95,West,281,2.3,2.3,80,0.00,CLR,,0.00,0.0,WeatherDisplay:10.37,2013-10-12 04:33:00,
2013-10-11 21:38:00,61.8,55.9,29.95,West,281,2.3,2.3,81,0.00,CLR,,0.00,0.0,WeatherDisplay:10.37,2013-10-12 04:38:00,
2013-10-11 21:43:00,61.7,55.8,29.95,West,281,1.2,1.2,81,0.00,CLR,,0.00,0.0,WeatherDisplay:10.37,2013-10-12 04:43:00,
2013-10-11 21:48:00,61.6,55.7,29.95,West,281,2.3,0.0,81,0.00,CLR,,0.00,0.0,WeatherDisplay:10.37,2013-10-12 04:48:00,
2013-10-11 21:53:00,61.5,55.6,29.95,West,281,1.2,1.2,81,0.00,CLR,,0.00,0.0,WeatherDisplay:10.37,2013-10-12 04:53:00,
2013-10-11 21:58:00,61.4,55.9,29.95,West,281,1.2,0.0,82,0.00,CLR,,0.00,0.0,WeatherDisplay:10.37,2013-10-12 04:58:00,
2013-10-11 22:03:00,61.3,55.8,29.95,West,281,0.0,0.0,82,0.00,CLR,,0.00,0.0,WeatherDisplay:10.37,2013-10-12 05:03:00,
2013-10-11 22:08:00,61.2,55.7,29.95,West,281,0.0,0.0,82,0.00,CLR,,0.00,0.0,WeatherDisplay:10.37,2013-10-12 05:08:00,
2013-10-11 22:13:00,61.1,55.6,29.95,West,281,0.0,0.0,82,0.00,CLR,,0.00,0.0,WeatherDisplay:10.37,2013-10-12 05:13:00,
2013-10-11 22:18:00,61.0,55.5,29.95,West,281,0.0,0.0,82,0.00,CLR,,0.00,0.0,WeatherDisplay:10.37,2013-10-12 05:18:00,
2013-10-11 22:23:00,60.8,55.3,29.95,West,281,0.0,0.0,82,0.00,CLR,,0.00,0.0,WeatherDisplay:10.37,2013-10-12 05:23:00,
2013-10-11 22:28:00,60.6,55.4,29.95,West,281,0.0,0.0,83,0.00,CLR,,0.00,0.0,WeatherDisplay:10.37,2013-10-12 05:28:00,
2013-10-11 22:33:00,60.5,55.3,29.95,West,281,0.0,0.0,83,0.00,CLR,,0.00,0.0,WeatherDisplay:10.37,2013-10-12 05:33:00,
2013-10-11 22:39:00,60.3,55.1,29.95,West,281,0.0,0.0,83,0.00,CLR,,0.00,0.0,WeatherDisplay:10.37,2013-10-12 05:39:00,
2013-10-11 22:44:00,60.1,54.9,29.96,West,281,0.0,0.0,83,0.00,CLR,,0.00,0.0,WeatherDisplay:10.37,2013-10-12 05:44:00,
2013-10-11 22:49:00,60.0,55.2,29.95,West,281,0.0,0.0,84,0.00,CLR,,0.00,0.0,WeatherDisplay:10.37,2013-10-12 05:49:00,
2013-10-11 22:54:00,59.9,55.1,29.95,West,281,0.0,0.0,84,0.00,CLR,,0.00,0.0,WeatherDisplay:10.37,2013-10-12 05:54:00,
2013-10-11 22:59:00,59.7,54.9,29.95,West,281,0.0,0.0,84,0.00,CLR,,0.00,0.0,WeatherDisplay:10.37,2013-10-12 05:59:00,
2013-10-11 23:04:00,59.6,54.8,29.95,West,281,1.2,1.2,84,0.00,CLR,,0.00,0.0,WeatherDisplay:10.37,2013-10-12 06:04:00,
2013-10-11 23:09:00,59.5,54.7,29.95,West,281,1.2,0.0,84,0.00,CLR,,0.00,0.0,WeatherDisplay:10.37,2013-10-12 06:09:00,
2013-10-11 23:14:00,59.4,54.6,29.96,West,281,1.2,0.0,84,0.00,CLR,,0.00,0.0,WeatherDisplay:10.37,2013-10-12 06:14:00,
2013-10-11 23:19:00,59.3,54.5,29.95,West,281,0.0,0.0,84,0.00,CLR,,0.00,0.0,WeatherDisplay:10.37,2013-10-12 06:19:00,
2013-10-11 23:24:00,59.2,54.4,29.96,West,281,1.0,1.0,84,0.00,CLR,,0.00,0.0,WeatherDisplay:10.37,2013-10-12 06:24:00,
2013-10-11 23:29:00,59.1,54.3,29.95,West,281,1.2,1.2,84,0.00,CLR,,0.00,0.0,WeatherDisplay:10.37,2013-10-12 06:29:00,
2013-10-11 23:34:00,59.1,54.3,29.96,West,281,1.2,0.0,84,0.00,CLR,,0.00,0.0,WeatherDisplay:10.37,2013-10-12 06:34:00,
2013-10-11 23:39:00,58.9,54.1,29.96,West,281,1.2,1.2,84,0.00,CLR,,0.00,0.0,WeatherDisplay:10.37,2013-10-12 06:39:00,
2013-10-11 23:44:00,58.8,54.0,29.96,West,281,0.0,0.0,84,0.00,CLR,,0.00,0.0,WeatherDisplay:10.37,2013-10-12 06:44:00,
2013-10-11 23:49:00,58.6,53.8,29.96,West,281,1.0,1.0,84,0.00,CLR,,0.00,0.0,WeatherDisplay:10.37,2013-10-12 06:49:00,
2013-10-11 23:54:00,58.5,53.7,29.95,West,281,1.0,1.0,84,0.00,CLR,,0.00,0.0,WeatherDisplay:10.37,2013-10-12 06:54:00,
2013-10-11 23:59:00,58.3,53.5,29.95,West,281,1.0,1.0,84,0.00,CLR,,0.00,0.0,WeatherDisplay:10.37,2013-10-12 06:59:00,